Location: Nairn
(57.5833°N, 3.8667°W)
Time: 18:35:58
(UTC+00:00)

Cosmos 1842 - Pass Details

Date: 07 August 2020
Orbit: 520 x 538 km, 82.5° (Epoch: 23 September)

Event Time Altitude Azimuth Distance (km) Brightness Sun altitude
Rises 01:08:14 0° 342° (NNW) 2,708 7.9 -15.4°
Reaches altitude 10° 01:10:31 10° 333° (NNW) 1,809 6.7 -15.4°
Maximum altitude 01:14:08 35° 268° (W) 890 4.2 -15.3°
Enters shadow 01:15:42 25° 224° (SW) 1,114 4.4 -15.2°
